[[{"header":{"parameterUnit":"m.s-1","parameterCategory":1,"la1":30.2991,"la2":30.254,"lo1":-89.0895,"lo2":-89.0444,"dy":0.0017,"dx":0.0017,"nx":28,"ny":28,"refTime":"2025-07-25T03:00:00:Z","depth":0,"parameterNumber":2,"parameterNumberName":"U-component_of_WINDS"},"data":[0,0,0,0,0,0,0,0,0,0,0,0,0,0,0,0,0,0,0,0,0,0,0,0,0,0,0,0,0,0,0,0,0,0,0,0,0,0,0,0,0,0,0,0,0,0,0,0,0,0,0,0,0,0,0,0,0,0,-3.1862,-3.1862,0,-3.1795,-3.1794,-3.1793,-3.1741,-3.1741,-3.174,-3.174,-3.1667,-3.1665,-3.1664,0,0,0,0,0,0,0,0,0,0,0,0,0,-3.1946,-3.1944,-3.1863,-3.1862,-3.1861,-3.1795,-3.1794,-3.1793,-3.1741,-3.1741,-3.174,-3.174,-3.1667,-3.1665,-3.1664,0,0,0,0,0,0,0,0,0,0,0,0,0,-3.1897,-3.1944,-3.1863,-3.1827,-3.1823,-3.1795,-3.1794,-3.1793,-3.1741,-3.1741,-3.174,-3.1739,-3.1668,-3.1666,-3.1663,-3.1663,0,0,-3.1656,-3.1655,0,0,0,0,0,0,0,0,-3.19,-3.1894,-3.1833,-3.183,-3.1825,-3.1776,-3.1796,-3.1749,-3.1742,-3.1773,-3.174,-3.1739,-3.1703,-3.1698,-3.1687,-3.166,-3.1657,-3.1656,-3.1655,-3.1654,-3.1653,0,0,0,0,0,0,0,-3.1903,-3.1896,-3.1835,-3.1833,-3.1828,-3.1814,-3.1806,-3.1787,-3.1743,-3.177,-3.1766,-3.1759,-3.1701,-3.1689,-3.1685,-3.1656,-3.1656,-3.1654,-3.1653,-3.1652,-3.1626,-3.1627,0,0,0,0,0,0,-3.1912,-3.1899,-3.1838,-3.1833,-3.1862,-3.1813,-3.1805,-3.1792,-3.1743,-3.1734,-3.1759,-3.1757,-3.1693,-3.1687,-3.1682,-3.1679,-3.1654,-3.1652,-3.165,-3.1625,-3.1626,-3.1627,0,0,0,0,0,0,-3.1914,-3.1907,-3.184,-3.1865,-3.1856,-3.1813,-3.1799,-3.1791,-3.1779,-3.1735,-3.1726,-3.1756,-3.1693,-3.1685,-3.1669,-3.1675,-3.1651,-3.1649,-3.1624,-3.1626,-3.1626,-3.1672,0,0,0,0,0,0,-3.1917,-3.1908,-3.1908,-3.1866,-3.1855,-3.1829,-3.18,-3.1791,-3.1776,-3.1772,-3.1729,-3.1721,-3.1691,-3.1672,-3.1667,-3.1672,-3.1647,-3.1624,-3.1625,-3.1626,-3.167,-3.1675,-3.1679,0,0,0,0,0,-3.192,-3.1923,-3.1909,-3.1901,-3.1854,-3.183,-3.1823,-3.179,-3.1777,-3.1776,-3.1748,-3.1723,-3.1676,-3.1671,-3.1664,-3.1669,-3.1623,-3.1625,-3.1626,-3.1668,-3.1674,-3.1679,0,0,0,0,0,0,-3.1966,-3.1917,-3.19,-3.189,-3.1865,-3.1821,-3.1819,-3.1797,-3.1774,-3.1771,-3.1729,-3.172,-3.1708,-3.1687,-3.1682,-3.1666,-3.1646,-3.1647,-3.1681,-3.1686,-3.169,-3.1695,-3.1645,0,0,0,0,0,-3.1975,-3.196,-3.1918,-3.1913,-3.1901,-3.1863,-3.1851,-3.1828,-3.1799,-3.1788,-3.1758,-3.1731,-3.171,-3.1697,-3.1675,-3.1667,-3.1657,-3.1667,-3.1671,-3.1675,-3.1675,-3.167,-3.1674,-3.1632,-3.1632,-3.1632,0,0,-3.1993,-3.1965,-3.1957,-3.1921,-3.1899,-3.1884,-3.1854,-3.1839,-3.1827,-3.1785,-3.1768,-3.1746,-3.1712,-3.17,-3.1693,-3.1682,-3.1685,-3.1677,-3.1681,-3.1678,-3.1672,-3.1676,-3.1679,-3.1633,-3.1633,-3.1632,0,0,-3.2018,-3.1996,-3.1989,-3.1968,-3.1935,-3.191,-3.1908,-3.1869,-3.1852,-3.1835,-3.1804,-3.1789,-3.1754,-3.1731,-3.1715,-3.1734,-3.171,-3.1728,-3.1751,-3.1746,-3.1749,-3.1752,-3.1758,-3.1761,-3.1729,-3.1729,-3.1729,0,-3.2045,-3.2022,-3.1988,-3.1975,-3.196,-3.1924,-3.1916,-3.1897,-3.1858,-3.1848,-3.1837,-3.1793,-3.1768,-3.175,-3.1755,-3.1744,-3.174,-3.1732,-3.1752,-3.1754,-3.1756,-3.1761,-3.1764,-3.1732,-3.1731,-3.1731,-3.1731,0,-3.2055,-3.204,-3.2038,-3.2004,-3.1989,-3.1979,-3.1943,-3.1932,-3.191,-3.1886,-3.1869,-3.1838,-3.181,-3.1804,-3.1783,-3.1784,-3.1778,-3.176,-3.1738,-3.1763,-3.1767,-3.1769,-3.1735,-3.1734,-3.1733,-3.1733,0,0,-3.2106,-3.2054,-3.2054,-3.2038,-3.2,-3.1987,-3.1976,-3.1949,-3.194,-3.1915,-3.1904,-3.1876,-3.186,-3.1842,-3.1818,-3.1813,-3.183,-3.1795,-3.1794,-3.1802,-3.1829,-3.1842,-3.1845,-3.1815,-3.1815,-3.1815,-3.1831,0,-3.2125,-3.2103,-3.2073,-3.2061,-3.2046,-3.2012,-3.2002,-3.1977,-3.1955,-3.1938,-3.1913,-3.1894,-3.1873,-3.1863,-3.1857,-3.1829,-3.1835,-3.1828,-3.1803,-3.1802,-3.1811,-3.1847,-3.1861,-3.1878,-3.1833,-3.1833,-3.1833,0,-3.2143,-3.2122,-3.2109,-3.2073,-3.2065,-3.2057,-3.2031,-3.2016,-3.1987,-3.1971,-3.1952,-3.1926,-3.1912,-3.1894,-3.1873,-3.187,-3.1858,-3.1843,-3.1843,-3.1838,-3.1818,-3.1843,-3.1883,-3.1885,-3.1836,-3.1836,-3.1836,0,-3.2181,-3.2149,-3.2137,-3.2124,-3.2082,-3.2077,-3.2059,-3.2029,-3.2016,-3.1993,-3.1983,-3.1959,-3.1945,-3.1926,-3.1894,-3.1885,-3.1877,-3.1857,-3.1862,-3.1863,-3.1861,-3.1862,-3.1899,-3.1856,-3.1856,-3.1856,-3.1855,0,-3.2205,-3.2198,-3.2153,-3.2146,-3.2137,-3.2103,-3.2095,-3.2074,-3.2048,-3.2036,-3.2004,-3.1993,-3.1952,-3.1936,-3.1911,-3.1897,-3.1891,-3.1877,-3.1871,-3.188,-3.1881,-3.187,-3.1868,-3.1856,-3.1856,-3.1856,-3.1856,0,-3.2245,-3.2215,-3.2199,-3.2161,-3.2151,-3.2147,-3.2114,-3.2105,-3.2081,-3.2066,-3.206,-3.2022,-3.2002,-3.1969,-3.1938,-3.1921,-3.1912,-3.1901,-3.1922,-3.1917,-3.1925,-3.1925,-3.1956,-3.1958,-3.1914,-3.1915,-3.1915,0,-3.2262,-3.2256,-3.2217,-3.2207,-3.2191,-3.2175,-3.2161,-3.2127,-3.2114,-3.2082,-3.2077,-3.2054,-3.2034,-3.2002,-3.1972,-3.1948,-3.1936,-3.1949,-3.1932,-3.1941,-3.1935,-3.1936,-3.1935,-3.1952,-3.1953,-3.1953,-3.1954,0,-3.2294,-3.228,-3.2262,-3.2239,-3.2224,-3.2204,-3.2182,-3.2176,-3.2137,-3.2124,-3.2103,-3.2088,-3.2057,-3.2035,-3.2007,-3.1987,-3.1964,-3.1959,-3.1959,-3.1968,-3.198,-3.1973,-3.1931,-3.1958,-3.1958,-3.1958,-3.1957,-3.1957,-3.2322,-3.2316,-3.2288,-3.2269,-3.225,-3.2231,-3.2221,-3.2196,-3.2179,-3.2152,-3.2133,-3.2113,-3.2085,-3.2046,-3.2028,-3.2011,-3.2001,-3.2001,-3.2001,-3.2001,-3.2005,-3.1984,-3.2006,-3.2006,-3.2006,-3.2006,-3.2006,0,-3.2353,-3.2334,-3.2317,-3.2289,-3.2274,-3.2255,-3.223,-3.2218,-3.2202,-3.2178,-3.216,-3.2136,-3.2114,-3.2083,-3.2058,-3.2051,-3.204,-3.2046,-3.2046,-3.2041,-3.2015,-3.2018,-3.2056,-3.2056,-3.2056,-3.2056,-3.2056,-3.2056,-3.2367,-3.2355,-3.2338,-3.2316,-3.2296,-3.2277,-3.2265,-3.2247,-3.2228,-3.2203,-3.2185,-3.2165,-3.2138,-3.2112,-3.2091,-3.2082,-3.2075,-3.2084,-3.2072,-3.2048,-3.2043,-3.2039,-3.2041,-3.2083,-3.2083,-3.2099,-3.2099,-3.2099]},{"header":{"parameterUnit":"m.s-1","parameterCategory":1,"la1":30.2991,"la2":30.254,"lo1":-89.0895,"lo2":-89.0444,"dy":0.0017,"dx":0.0017,"nx":28,"ny":28,"refTime":"2025-07-25T03:00:00:Z","depth":0,"parameterNumber":3,"parameterNumberName":"V-component_of_WINDS"},"data":[0,0,0,0,0,0,0,0,0,0,0,0,0,0,0,0,0,0,0,0,0,0,0,0,0,0,0,0,0,0,0,0,0,0,0,0,0,0,0,0,0,0,0,0,0,0,0,0,0,0,0,0,0,0,0,0,0,0,6.9288,6.9288,0,6.9352,6.9353,6.9354,6.9299,6.9297,6.9295,6.9292,6.9356,6.936,6.9363,0,0,0,0,0,0,0,0,0,0,0,0,0,6.9116,6.9119,6.9288,6.9288,6.9289,6.9352,6.9353,6.9354,6.93,6.9297,6.9294,6.9291,6.9355,6.9359,6.9364,0,0,0,0,0,0,0,0,0,0,0,0,0,6.9187,6.9121,6.9287,6.927,6.9269,6.9352,6.9353,6.9354,6.93,6.9297,6.9293,6.929,6.9353,6.9359,6.9364,6.9468,0,0,6.9382,6.9384,0,0,0,0,0,0,0,0,6.9183,6.9193,6.9272,6.9271,6.927,6.9314,6.9316,6.9392,6.9301,6.9288,6.9292,6.9288,6.9345,6.9351,6.937,6.947,6.9473,6.9382,6.9386,6.9388,6.939,0,0,0,0,0,0,0,6.9178,6.919,6.9313,6.9273,6.9272,6.9258,6.9264,6.933,6.9335,6.9289,6.9285,6.9294,6.9344,6.9365,6.9371,6.9474,6.9382,6.9387,6.9391,6.9393,6.9664,6.9668,0,0,0,0,0,0,6.9175,6.9186,6.9311,6.9315,6.9217,6.9264,6.9271,6.9303,6.9334,6.9335,6.9297,6.9291,6.9357,6.9365,6.9373,6.9497,6.9388,6.9394,6.9397,6.966,6.9665,6.9669,0,0,0,0,0,0,6.9171,6.9187,6.9308,6.925,6.9264,6.9271,6.9307,6.9307,6.9328,6.934,6.934,6.9318,6.9355,6.9365,6.9445,6.9498,6.9396,6.9401,6.9656,6.9662,6.9667,6.9744,0,0,0,0,0,0,6.9167,6.9186,6.9225,6.9251,6.9267,6.9379,6.9311,6.931,6.9338,6.9331,6.9359,6.9361,6.9353,6.9437,6.9451,6.9504,6.9406,6.9651,6.9658,6.9665,6.9737,6.9752,6.9765,0,0,0,0,0,6.9161,6.9243,6.9227,6.9243,6.9317,6.9383,6.9392,6.9382,6.9343,6.9382,6.939,6.936,6.9491,6.9446,6.9461,6.9517,6.9647,6.9656,6.9664,6.9731,6.9749,6.9764,0,0,0,0,0,0,6.9222,6.9246,6.9229,6.9322,6.9351,6.9373,6.9422,6.9401,6.9441,6.9433,6.9418,6.9425,6.9509,6.9521,6.947,6.9619,6.9563,6.9575,6.9608,6.9625,6.9639,6.9634,6.941,0,0,0,0,0,6.9246,6.9298,6.9317,6.9397,6.9413,6.9416,6.9444,6.9434,6.9463,6.9474,6.9488,6.9516,6.9564,6.9595,6.964,6.9739,6.9745,6.9785,6.9799,6.981,6.9821,6.9875,6.9894,6.9697,6.9697,6.9697,0,0,6.9297,6.9317,6.935,6.941,6.9431,6.9485,6.9426,6.9485,6.9525,6.9483,6.9559,6.9571,6.9602,6.9692,6.9732,6.9704,6.9877,6.9821,6.983,6.9834,6.9886,6.9904,6.9921,6.9703,6.9701,6.9701,0,0,6.9417,6.9437,6.9507,6.953,6.9564,6.9565,6.9583,6.9609,6.9615,6.9692,6.9662,6.9709,6.9791,6.9815,6.9838,6.997,6.9944,6.9985,7.0057,7.0111,7.0126,7.014,7.0187,7.0204,6.9996,6.9996,6.9996,0,6.9475,6.9556,6.9545,6.9608,6.9635,6.9602,6.9673,6.9695,6.9741,6.9761,6.9729,6.9833,6.9851,6.9948,6.998,7.0,7.0019,6.9981,7.0125,7.0138,7.0151,7.0196,7.0214,7.0001,7.0,7.0,6.9999,0,6.9626,6.9683,6.9735,6.9782,6.9816,6.9882,6.9882,6.9917,6.9905,6.991,6.999,7.0011,7.006,7.0083,7.007,7.0178,7.0159,7.0127,7.007,7.0175,7.0217,7.0234,7.0007,7.0006,7.0004,7.0003,0,0,6.9784,6.9826,6.9846,6.9867,6.9903,6.9947,7.0012,7.0061,7.0092,7.0125,7.018,7.0252,7.0222,7.0248,7.0239,7.0286,7.0391,7.0248,7.0249,7.0274,7.0511,7.0535,7.0555,7.0374,7.0378,7.038,7.0508,0,6.9905,7.0019,7.0013,7.012,7.0173,7.0143,7.02,7.0229,7.0236,7.0281,7.0289,7.034,7.0298,7.0314,7.0359,7.0368,7.0438,7.0359,7.0424,7.0427,7.0417,7.0577,7.0602,7.0721,7.0525,7.0527,7.0529,0,7.0061,7.0102,7.0215,7.0245,7.0267,7.0318,7.0364,7.0408,7.044,7.0442,7.0473,7.0456,7.0523,7.0465,7.0557,7.0503,7.053,7.0539,7.0544,7.0548,7.0484,7.0586,7.0759,7.0777,7.0555,7.0553,7.0551,0,7.0165,7.0248,7.0327,7.0347,7.0383,7.042,7.0437,7.0466,7.0496,7.0536,7.0556,7.0603,7.0628,7.0665,7.0662,7.0621,7.0755,7.0697,7.0759,7.0759,7.0787,7.0785,7.0967,7.0806,7.0806,7.0805,7.0805,0,7.0301,7.0371,7.0375,7.0423,7.0501,7.0494,7.0571,7.0584,7.0611,7.0661,7.0638,7.0686,7.0679,7.0727,7.0726,7.0802,7.0813,7.0817,7.0816,7.0819,7.0818,7.0835,7.0827,7.081,7.0809,7.0808,7.0807,0,7.0429,7.0435,7.0518,7.0547,7.0556,7.0613,7.0637,7.0683,7.069,7.0754,7.0768,7.0778,7.0834,7.0835,7.0898,7.0897,7.0991,7.098,7.098,7.0978,7.1039,7.1034,7.1238,7.1265,7.1086,7.1088,7.1089,0,7.0515,7.0569,7.0605,7.0637,7.0657,7.071,7.0742,7.0737,7.0771,7.0813,7.0854,7.0908,7.0951,7.1041,7.1054,7.1102,7.1093,7.1161,7.1099,7.1102,7.1094,7.109,7.1096,7.1172,7.1174,7.1176,7.1177,0,7.0668,7.0668,7.0715,7.0765,7.0804,7.0842,7.0877,7.0905,7.0905,7.0944,7.1001,7.1035,7.1101,7.1155,7.1202,7.1219,7.1199,7.1197,7.1214,7.1217,7.1215,7.1217,7.1013,7.1192,7.119,7.1189,7.1189,7.1188,7.0777,7.0824,7.0857,7.0911,7.0938,7.0972,7.1017,7.103,7.1078,7.1132,7.1127,7.1191,7.1223,7.1285,7.1307,7.1357,7.1333,7.1357,7.1363,7.1369,7.1376,7.1208,7.1365,7.1365,7.1365,7.1364,7.1364,0,7.0928,7.0949,7.0999,7.105,7.1093,7.1071,7.111,7.1147,7.1204,7.1236,7.1279,7.1346,7.1399,7.1417,7.1468,7.1505,7.1497,7.1518,7.1515,7.152,7.1394,7.1375,7.1524,7.1524,7.1524,7.1524,7.1524,7.1524,7.1012,7.1091,7.1096,7.1188,7.1207,7.1271,7.1295,7.1326,7.1352,7.1428,7.1473,7.1484,7.1511,7.1565,7.1613,7.1617,7.1636,7.1662,7.1662,7.1544,7.1528,7.1513,7.1494,7.1667,7.1667,7.1783,7.1785,7.1785]}]]